Starlink 32128

operational
NORAD ID: 60272 Int'l Des: 2024-131 Owner: SPXS Country: US Constellation: starlink
LEOCIRCULAR

Starlink 32128について

説明を読み込み中...

リアルタイム位置

3D地球を読み込み中...

次回通過

高度履歴

Altitude vs Time

uPlot chart will show altitude changes over time

軌道要素

1 60272U 24131T 25306.21045393 .00000506 00000-0 29206-4 0 9995
2 60272 53.1611 284.3701 0001338 88.6400 271.4754 15.30190593 72209
Epoch: Nov 2, 2025 • Age: 23 hours

現在のステータス

高度 485.2 km
速度 7.62 km/s
衛星直下点 -30.68°S, 145.04°E
打ち上げ日 Jul 27, 2024
運用期間 1.2 years
タイプ internet

技術仕様

分類 Payload
質量 730.00 kg
乾燥質量 700.00 kg
総質量 730.00 kg
長さ 0.30 m
直径 4.10 m
スパン 29.00 m
形状 Box + pan
製造者 SPXS
バスタイプ Starlink V2M
フェーズステータス In Orbit
所有者/国 SPXS/US

大規模コンステレーション

Loading constellations...